Printer-friendly version

IAU Minor Planet Center

Minor Planet Center

MPEC 2005-P10 : 2003 OP32

The following Minor Planet Electronic Circular may be linked-to from your own Web pages, but must not otherwise be redistributed electronically.


Read MPEC 2005-P09 Read MPEC 2005-P11


M.P.E.C. 2005-P10                                Issued 2005 Aug. 1, 21:51 UT

     The Minor Planet Electronic Circulars contain information on unusual
         minor planets and routine data on comets.  They are published
   on behalf of Commission 20 of the International Astronomical Union by the
          Minor Planet Center, Smithsonian Astrophysical Observatory,
                          Cambridge, MA 02138, U.S.A.

                  Supported in part by the Brinson Foundation
             Prepared using the Tamkin Foundation Computer Network

                              MPC@CFA.HARVARD.EDU
          URL http://cfa-www.harvard.edu/iau/mpc.html  ISSN 1523-6714

                                   2003 OP32

Observations:
     K03O32P  C2001 08 12.25331 20 54 16.35 +04 04 49.4                 EP010644
     K03O32P* C2003 07 26.26364 21 07 12.92 +04 06 18.2          20.3 R EP010675
     K03O32P  C2003 07 26.34922 21 07 12.54 +04 06 16.6          20.0 R EP010675
     K03O32P  C2003 07 26.41359 21 07 12.24 +04 06 15.3          19.8 R EP010675
     K03O32P  C2003 08 10.22417 21 06 03.6  +04 00 47            19.8 R EP010675
     K03O32P  C2003 08 30.15904 21 04 34.1  +03 50 39            19.8 R EP010675
     K03O32P  C2004 09 22.17348 21 08 51.69 +03 33 14.5          19.9 R EP010675
     K03O32P  C2004 09 22.21505 21 08 51.59 +03 33 13.1          20.0 R EP010675
     K03O32P  C2004 09 22.23896 21 08 51.49 +03 33 12.1          20.0 R EP010675

Observer details:
644 Palomar Mountain/NEAT.  Observer NEAT Team.  Measurer M. Brown.
    1.2-m Oschin Schmidt + CCD.
675 Palomar Mountain.  Observers M. Brown, C. Trujillo, D. Rabinowitz.
    1.2-m Oschin Schmidt + CCD.

Orbital elements:
2003 OP32
Epoch 2005 Aug. 18.0 TT = JDT 2453600.5                 MPC
M  57.65987              (2000.0)            P               Q
n   0.00348509     Peri.   68.30713     -0.32739362     +0.94460538
a  43.0850392      Node   182.89706     -0.94333808     -0.32535844
e   0.1042178      Incl.   27.21023     +0.05409890     +0.04315744
P 283              H    4.2           G   0.15           U   4
Residuals in seconds of arc
010812 644  0.1+  0.7+    030726 675  0.4+  0.1-    040922 675  0.1-  0.3+
030726 675  0.2+  0.2+    030810 675  0.8-  1.3- Y  040922 675  0.3+  0.5+
030726 675  0.4+  0.1+    030830 675  0.5-  0.8- Y  040922 675  0.1-  0.4+

Ephemeris:
2003 OP32                a,e,i = 43.09, 0.10, 27                 q = 38.595
Date    TT    R. A. (2000) Decl.     Delta      r     Elong.  Phase     V
2005 07 29    21 18.45   +03 59.4   40.120   41.040   154.6     0.6    20.4
2005 08 08    21 17.69   +03 55.8   40.089   41.042   159.8     0.5    20.4
2005 08 18    21 16.92   +03 51.2   40.086   41.045   161.2     0.5    20.4
2005 08 28    21 16.17   +03 45.9   40.110   41.048   157.9     0.5    20.4
2005 09 07    21 15.48   +03 40.1   40.161   41.050   151.5     0.7    20.4
2005 09 17    21 14.86   +03 33.9   40.239   41.053   143.6     0.8    20.4
2005 09 27    21 14.35   +03 27.5   40.340   41.055   135.0     1.0    20.4
2005 10 07    21 13.95   +03 21.0   40.463   41.058   126.0     1.1    20.5
2005 10 17    21 13.69   +03 14.8   40.603   41.060   116.7     1.2    20.5
2005 10 27    21 13.59   +03 09.0   40.756   41.063   107.3     1.3    20.5
2005 11 06    21 13.63   +03 03.7   40.919   41.065    97.8     1.4    20.5
2005 11 16    21 13.84   +02 59.1   41.085   41.068    88.3     1.4    20.5
2005 11 26    21 14.21   +02 55.4   41.251   41.071    78.8     1.4    20.5
2005 12 06    21 14.72   +02 52.6   41.411   41.073    69.3     1.3    20.5
2005 12 16    21 15.38   +02 50.8   41.561   41.076    59.9     1.2    20.5
2005 12 26    21 16.15   +02 50.2   41.696   41.078    50.6     1.1    20.5
2006 01 05    21 17.03   +02 50.6   41.812   41.081    41.5     0.9    20.5
2006 01 15    21 17.99   +02 52.0   41.905   41.083    32.9     0.7    20.5

Brian G. Marsden             (C) Copyright 2005 MPC           M.P.E.C. 2005-P10

Read MPEC 2005-P09 Read MPEC 2005-P11


Our Web policy. Index to the CBAT/MPC/ICQ pages.


Valid HTML 4.01!